TimeICT,TemperatureF,Dew PointF,Humidity,Sea Level PressureIn,VisibilityMPH,Wind Direction,Wind SpeedMPH,Gust SpeedMPH,PrecipitationIn,Events,Conditions,WindDirDegrees,DateUTC
12:00 AM,78.8,69.8,74,29.89,5.0,Calm,Calm,-,N/A,,Unknown,0,2013-03-06 17:00:00
12:30 AM,78.8,69.8,74,29.89,5.0,Calm,Calm,-,N/A,,Unknown,0,2013-03-06 17:30:00
7:00 AM,78.8,64.4,61,29.95,5.0,East,5.8,-,N/A,,Partly Cloudy,100,2013-03-07 00:00:00
7:30 AM,78.8,64.4,61,29.95,5.0,East,6.9,-,N/A,,Partly Cloudy,100,2013-03-07 00:30:00
8:00 AM,80.6,64.4,58,29.98,5.0,East,6.9,-,N/A,,Partly Cloudy,100,2013-03-07 01:00:00
8:30 AM,80.6,64.4,58,29.98,5.6,ESE,12.7,-,N/A,,Partly Cloudy,110,2013-03-07 01:30:00
9:00 AM,84.2,64.4,51,29.98,5.6,East,13.8,-,N/A,,Partly Cloudy,100,2013-03-07 02:00:00
9:30 AM,84.2,64.4,51,29.98,5.6,East,13.8,-,N/A,,Partly Cloudy,100,2013-03-07 02:30:00
10:00 AM,86.0,62.6,45,29.98,5.6,ESE,15.0,-,N/A,,Partly Cloudy,120,2013-03-07 03:00:00
10:30 AM,87.8,62.6,43,29.98,6.2,East,11.5,-,N/A,,Partly Cloudy,100,2013-03-07 03:30:00
11:00 AM,89.6,62.6,40,29.95,6.2,East,11.5,-,N/A,,Partly Cloudy,100,2013-03-07 04:00:00
11:30 AM,89.6,60.8,38,29.95,6.2,ESE,10.4,-,N/A,,Partly Cloudy,120,2013-03-07 04:30:00
12:00 PM,89.6,60.8,38,29.92,6.2,East,10.4,-,N/A,,Partly Cloudy,100,2013-03-07 05:00:00
12:30 PM,91.4,60.8,36,29.92,6.2,East,9.2,-,N/A,,Partly Cloudy,100,2013-03-07 05:30:00
1:00 PM,91.4,60.8,36,29.89,6.2,ESE,8.1,-,N/A,,Partly Cloudy,110,2013-03-07 06:00:00
1:30 PM,93.2,60.8,34,29.86,6.2,North,9.2,-,N/A,,Partly Cloudy,900,2013-03-07 06:30:00
2:00 PM,93.2,62.6,36,29.86,6.2,SSE,6.9,-,N/A,,Partly Cloudy,150,2013-03-07 07:00:00
2:30 PM,91.4,64.4,41,29.83,6.2,South,8.1,-,N/A,,Partly Cloudy,180,2013-03-07 07:30:00
3:00 PM,93.2,64.4,38,29.83,6.2,SSW,9.2,-,N/A,,Partly Cloudy,200,2013-03-07 08:00:00
3:30 PM,93.2,62.6,36,29.83,6.2,SSW,9.2,-,N/A,,Partly Cloudy,200,2013-03-07 08:30:00
4:00 PM,91.4,62.6,38,29.83,6.2,SW,9.2,-,N/A,,Partly Cloudy,220,2013-03-07 09:00:00
4:30 PM,91.4,64.4,41,29.83,6.2,SW,9.2,-,N/A,,Partly Cloudy,220,2013-03-07 09:30:00
5:00 PM,89.6,62.6,40,29.83,6.2,SSW,9.2,-,N/A,,Partly Cloudy,200,2013-03-07 10:00:00
5:30 PM,89.6,64.4,43,29.83,6.2,SSW,6.9,-,N/A,,Partly Cloudy,200,2013-03-07 10:30:00
6:00 PM,87.8,66.2,49,29.83,6.2,SSW,5.8,-,N/A,,Partly Cloudy,210,2013-03-07 11:00:00
6:30 PM,86.0,68.0,55,29.83,5.6,Variable,3.5,-,N/A,,Unknown,0,2013-03-07 11:30:00
7:00 PM,84.2,69.8,62,29.83,5.6,Variable,2.3,-,N/A,,Unknown,0,2013-03-07 12:00:00
7:30 PM,84.2,71.6,66,29.86,5.6,Calm,Calm,-,N/A,,Unknown,0,2013-03-07 12:30:00
8:00 PM,82.4,71.6,70,29.86,5.6,Calm,Calm,-,N/A,,Unknown,0,2013-03-07 13:00:00
8:30 PM,82.4,71.6,70,29.89,5.6,Variable,3.5,-,N/A,,Unknown,0,2013-03-07 13:30:00
9:00 PM,82.4,68.0,62,29.89,5.6,Variable,1.2,-,N/A,,Unknown,0,2013-03-07 14:00:00
9:30 PM,82.4,69.8,66,29.89,5.6,Variable,2.3,-,N/A,,Unknown,0,2013-03-07 14:30:00
10:00 PM,82.4,68.0,62,29.89,5.6,Variable,3.5,-,N/A,,Unknown,0,2013-03-07 15:00:00
10:30 PM,80.6,69.8,70,29.89,5.6,Variable,2.3,-,N/A,,Unknown,0,2013-03-07 15:30:00
11:00 PM,80.6,69.8,70,29.89,5.6,Variable,2.3,-,N/A,,Unknown,0,2013-03-07 16:00:00
11:30 PM,80.6,69.8,70,29.89,5.6,Calm,Calm,-,N/A,,Unknown,0,2013-03-07 16:30:00